Flag for Germany Weather past 2 weeks in Weyhe, Lower Saxony, Germany

Now
72 °F

Sunny.


Feels Like: 71 °F
Forecast: 62 / 85 °F
Wind: 6 mph from Northeast

Location: Bremen Airport

Current Time: Aug 30, 2015 at 9:02:11 PM

Latest Report: Aug 30, 2015 at 8:20 PM


Visibility: 10 mi

Pressure: 30.01 "Hg

Humidity: 83%

Dew point: 66 °F

Location of WeyheLocation

Historic Weather in Weyhe — Graph

°F

Weyhe temperature yesterday

Maximum temperature yesterday: 73 °F (at 4:50 PM)
Minimum temperature yesterday: 50 °F (at 3:20 AM)
Average temperature yesterday: 62 °F

Past Weeks' High & Low Weather Summary

 TemperatureHumidityPressure
High79 °F (Aug 22, 2:50 PM)100% (Aug 17, 5:20 AM)30.27 "Hg (Aug 17, 5:20 AM)
Low50 °F (Aug 29, 3:20 AM)30% (Aug 22, 1:50 PM)29.56 "Hg (Aug 24, 5:50 PM)
Average65 °F78%29.97 "Hg
* Reported Aug 15 7:20 PM — Aug 30 7:50 PM, Weyhe, Weather by CustomWeather, © 2015

Note: Actual official high and low records may vary slightly from our data, if they occured in-between our weather recording intervals... More about our weather records

Advertising

Weyhe weather history for previous 24 hours

 ConditionsComfort  
Time TempWeatherWind HumidityBarometerVisibility
7:50 PM
Sun, Aug 30
72 °FSunny.7 mph83%30.01 "Hg10 mi
7:20 PM73 °FSunny.7 mph78%30.01 "Hg10 mi
6:50 PM73 °FPartly sunny.8 mph78%30.01 "HgN/A
6:20 PM73 °FPartly sunny.9 mph78%30.01 "HgN/A
5:50 PM75 °FScattered clouds.7 mph78%30.01 "HgN/A
5:20 PM73 °FScattered clouds.7 mph78%30.01 "HgN/A
4:50 PM73 °FScattered clouds.8 mph78%30.01 "HgN/A
4:20 PM73 °FScattered clouds.8 mph78%30.01 "HgN/A
3:50 PM73 °FPartly sunny.8 mph78%30.04 "HgN/A
3:20 PM73 °FPartly sunny.6 mph78%30.04 "HgN/A
2:50 PM70 °FPartly sunny.6 mph88%30.04 "HgN/A
2:20 PM70 °FBroken clouds.7 mph88%30.04 "HgN/A
1:50 PM70 °FBroken clouds.5 mph83%30.07 "HgN/A
1:20 PM68 °FBroken clouds.6 mph88%30.07 "HgN/A
12:50 PM68 °FBroken clouds.6 mph88%30.07 "HgN/A
12:20 PM64 °FBroken clouds.6 mph94%30.07 "HgN/A
11:50 AM64 °FPartly sunny.6 mph94%30.07 "Hg5 mi
11:20 AM63 °FThunderstorms. Partly sunny.7 mph94%30.07 "Hg2 mi
10:50 AM63 °FThundershowers. Partly sunny.8 mph94%30.07 "Hg5 mi
10:20 AM63 °FSprinkles. Partly sunny.6 mph94%30.09 "HgN/A
9:50 AM61 °FBroken clouds.5 mph94%30.09 "Hg6 mi
9:20 AM59 °FBroken clouds.6 mph94%30.09 "Hg6 mi
8:50 AM59 °FBroken clouds.2 mph94%30.12 "HgN/A
8:20 AM59 °FThundershowers. Broken clouds.2 mph94%30.09 "Hg6 mi
7:50 AM59 °FThundershowers. Broken clouds.6 mph94%30.09 "Hg5 mi
7:20 AM59 °FThunderstorms. Partly cloudy.8 mph94%30.09 "Hg3 mi
6:50 AM59 °FThundershowers. Partly cloudy.3 mph88%30.12 "HgN/A
6:20 AM57 °FPassing clouds.5 mph94%30.12 "HgN/A
5:50 AM59 °FClear.7 mph88%30.09 "Hg10 mi
5:20 AM59 °FPassing clouds.5 mph88%30.09 "HgN/A
4:50 AM59 °FClear.6 mph88%30.09 "Hg10 mi
4:20 AM61 °FPassing clouds.5 mph83%30.09 "HgN/A
3:50 AM59 °FClear.3 mph94%30.09 "Hg10 mi
3:20 AM57 °FPassing clouds.2 mph94%30.12 "HgN/A
2:50 AM57 °FClear.3 mph88%30.12 "Hg10 mi
2:20 AM57 °FClear.2 mph94%30.12 "Hg10 mi
1:50 AM57 °FPassing clouds.2 mph94%30.12 "HgN/A
1:20 AM59 °FPassing clouds.3 mph94%30.12 "HgN/A
12:50 AM57 °FPassing clouds.1 mph94%30.12 "HgN/A
12:20 AM57 °FFog.1 mph94%30.15 "HgN/A
11:50 PM
Sat, Aug 29
57 °FFog.2 mph88%30.15 "HgN/A
11:20 PM59 °FFog.1 mph88%30.15 "HgN/A
10:50 PM59 °FFog.3 mph88%30.15 "HgN/A
10:20 PM59 °FFog.3 mph88%30.15 "HgN/A
9:50 PM61 °FClear.3 mph83%30.15 "Hg10 mi
9:20 PM63 °FSunny.3 mph77%30.15 "Hg10 mi
Weather by CustomWeather, © 2015

See weather overviewHow to use our weather pages